STARLINK-11471, 62225

Orbit data source: Space-Track

STARLINK-11471, 62225 is a payload satellite owned by SpaceX/Seattle (US) in LEO that was launched on Thu, 05 Dec 2024 UTC via an FALCON 9 launch vehicle from the Air Force Western Test Range (AFWTR). Payload-class satellites include a variety of spacecraft equipped with specific instruments for various scientific and technological missions. These include communications satellites like Starlink; space stations such as the ISS; scientific satellites like the Hubble; Earth observation satellites from companies like Planet Labs, Umbra, and HawkEye 360; GPS; miniature CubeSats for education and research; and military/defense satellites.

Loading next visibility...
Identifier
62225, 2024-231H
Orbit
LEO
Country
Flag of USUS
Related business
Manufacturer
SpaceX/Seattle
Mission
Operational Commercial Communications
Bus & Motor
STARLINK V2MD, Unknown motor
Mass
960 kg wet, ~910 kg dry
Launch date (UTC)
2024-12-05 (2 years ago)
Launch vehicle
FALCON 9
Launch site
Air Force Western Test Range (AFWTR)
Object type
Payload
Rocket body
Debris
Shape & HBR
Box + 2 Pan, 18.1 m
Radar Cross Section
36.964 m², Large (>1 m²)

Expand to show TLE details & history
Last TLE update: 14 hours ago

TLE from 14 hours ago
0 STARLINK-11471
1 62225U 24231H   26256.57291242  .00143836  00000-0  11702-2 0  9990
2 62225  53.1577 254.8612 0001227  78.4115 281.7040 15.69739781102925
Epoch: 2026-09-13T13:44Z
TLE epoch observation values (Epoch: 2026-09-13T13:44:59.633Z)
Latitude
-0.00005°
Longitude
56.04706°
Altitude
360.389 km
Speed
7.694 km/s
True Right ascension
16h 59m 26s
True Declination
0° 00' 00"
Sunlit
Object was in daylight at epoch
Visualization orbit readout
Latitude
Unknown
Longitude
Unknown
Altitude
Unknown
Speed
Unknown
Apparent Right ascension
Unknown
Apparent Declination
Unknown
Sunlit
N/A
Visualization observer readout
Local Sidereal Time
20:08:21
Azimuth
Unknown
Elevation
Unknown
Doppler factor
Unknown
Orbital elements
Apogee altitude
360.729 km
Perigee altitude
359.076 km
Semi-major axis
6,738.04 km
Eccentricity
0.00012
Inclination
53.1577°
RAAN
254.8612°
Arg. of periapsis
78.4115°
True anomaly
281.69023°
Mean anomaly
281.704°
Eccentric anomaly
281.69712°
Mean motion
3.92412 °/min
Orbital period
91.74 mins
BSTAR
0.0011702
Loading maneuver chart data...
Computing Atmospheric mass density...
Loading historical data...
Loading historical data...
Loading historical data...
Loading historical data...
Loading historical data...
Loading historical data...
Loading historical data...

Documentation

Showing up to 5 results
|